Regional Weather Roundup
Issued by NWS

Home | Current Version | Previous Version | Graphics & Text | Print | Product List | Glossary On
Versions: 1 2 3 4 5 6 7 8 9 10 11 12 13 14 15 16 17 18 19 20 21 22 23 24 25 26 27 28 29 30 31 32 33 34 35 36 37 38 39 40 41 42 43 44 45 46 47 48 49 50
886
ASUS45 KBOI 211210
RWRID

IDAHO REGIONAL WEATHER ROUNDUP
NATIONAL WEATHER SERVICE BOISE ID
600 AM MDT FRI JUL 21 2017

NOTE: "FAIR" INDICATES FEW OR NO CLOUDS BELOW 12000 FEET
WITH NO SIGNIFICANT WEATHER AND/OR OBSTRUCTIONS TO VISIBILITY

IDZ012-014-211300-
SOUTHWEST IDAHO


CITY           SKY/WX    TMP DP  RH WIND       PRES   REMARKS
BOISE          CLEAR     60  43  53 S5        30.04R
CALDWELL       CLEAR     60  44  55 W7        30.04R
MOUNTAIN HOME  CLEAR     58  42  54 W5        30.04R
$$

IDZ016-017-211300-
SOUTHCENTRAL IDAHO


CITY           SKY/WX    TMP DP  RH WIND       PRES   REMARKS
BURLEY         CLEAR     54  44  69 CALM      30.08R
JEROME         CLEAR     59  39  47 SE3       30.09R
TWIN FALLS     CLEAR     61  38  42 SW9       30.09R
$$

IDZ019>023-211300-
SOUTHEAST IDAHO


CITY           SKY/WX    TMP DP  RH WIND       PRES   REMARKS
IDAHO FALLS    CLOUDY    49  46  90 W3        30.12R
POCATELLO      CLEAR     59  39  47 SW6       30.10R
REXBURG        CLEAR     50  45  83 NE5       30.12R
$$

IDZ006-010-011-018-031-032-211300-
CENTRAL IDAHO MOUNTAINS


CITY           SKY/WX    TMP DP  RH WIND       PRES   REMARKS
MCCALL         CLEAR     46  39  76 CALM      30.15R
HAILEY         CLEAR     52  32  46 NW10      30.18R
STANLEY          N/A     35  27  72 CALM      30.28R
SALMON         NOT AVBL
CHALLIS        CLEAR     51  32  48 CALM      30.17R
$$

IDZ002-004-006-007-026-211300-
NORTHERN IDAHO


CITY           SKY/WX    TMP DP  RH WIND       PRES   REMARKS
LEWISTON       CLEAR     59  38  45 S5        30.08R
LOWELL           N/A     53  45  74 N3        30.13R
COEUR D`ALENE  CLEAR     59  47  64 S9        30.06R
MULLAN PASS    CLEAR     47  36  65 SW6       30.17S
$$




USA.gov is the U.S. government's official web portal to all federal, state and local government web resources and services.